Weather History for KNFL - April, 2014

Change the Weather History Date:

Friday, April 4, 2014

  Actual Average Record
Temperature  
Mean Temperature 46 °F -  
Max Temperature 59 °F 64 °F 87 °F (1961)
Min Temperature 34 °F 31 °F 15 °F (1945)
Degree Days  
Heating Degree Days 20    
Moisture  
Dew Point 23 °F    
Average Humidity 42    
Maximum Humidity 64    
Minimum Humidity 19    
Precipitation  
Precipitation 0.00 in - - ()
Sea Level Pressure  
Sea Level Pressure 29.84 in    
Wind  
Wind Speed 5 mph (NNW)    
Max Wind Speed 14 mph    
Max Gust Speed -    
Visibility 10 miles    
Events      
Averages and records for this station are not official NWS values.
T = Trace of Precipitation, MM = Missing Value Source: NWS Daily Summary

Daily Weather History Graph

Daily Weather History Graph

Search for Another Location

Airport or City:

Trip Planner

Search our weather history database for the weather conditions in past years. The results will help you decide how hot, cold, wet, or windy it might be!

Date:

Astronomy

Apr. 04, 2014 Rise Set
Actual Time 6:34 AM PDT 7:21 PM PDT
Civil Twilight 6:07 AM PDT 7:49 PM PDT
Nautical Twilight 5:34 AM PDT 8:21 PM PDT
Astronomical Twilight 5:01 AM PDT 8:54 PM PDT
Moon 9:56 AM PDT (4/4) No Moon Set
Length of Visible Light 13h 41m
Length of Day
12h 47m
Waxing Crescent, 26% of the Moon is Illuminated
Apr 4
Waxing Crescent
Apr 7
First Quarter
Apr 15
Full
Apr 22
Last Quarter
Apr 28
New

Hourly Weather History & Observations

Time (PDT) Temp. Windchill Dew Point Humidity Pressure Visibility Wind Dir Wind Speed Gust Speed Precip Events Conditions
12:56 AM 39.0 °F 35.7 °F 23.0 °F 53% 29.88 in 10.0 mi NNE 4.6 mph - N/A   Partly Cloudy
1:56 AM 37.9 °F 35.5 °F 23.0 °F 55% 29.88 in 10.0 mi NNW 3.5 mph - N/A   Mostly Cloudy
2:56 AM 36.0 °F 33.3 °F 23.0 °F 59% 29.88 in 10.0 mi West 3.5 mph - N/A   Mostly Cloudy
3:56 AM 35.1 °F - 23.0 °F 61% 29.86 in 10.0 mi Calm Calm - N/A   Clear
4:56 AM 36.0 °F 33.3 °F 23.0 °F 59% 29.86 in 10.0 mi West 3.5 mph - N/A   Mostly Cloudy
5:56 AM 35.1 °F - 24.1 °F 64% 29.86 in 10.0 mi North - - N/A   Scattered Clouds
6:14 AM 34.0 °F 29.8 °F 23.0 °F 64% 29.95 in 10.0 mi SE 4.6 mph - N/A   Overcast
6:56 AM 35.1 °F - 24.1 °F 64% 29.88 in 10.0 mi Calm Calm - N/A   Overcast
7:56 AM 39.0 °F 35.7 °F 25.0 °F 57% 29.87 in 10.0 mi ESE 4.6 mph - N/A   Mostly Cloudy
8:56 AM 46.0 °F 41.9 °F 25.0 °F 44% 29.86 in 10.0 mi ENE 8.1 mph - N/A   Mostly Cloudy
9:56 AM 48.9 °F - 24.1 °F 38% 29.87 in 10.0 mi Calm Calm - N/A   Mostly Cloudy
10:56 AM 53.1 °F - 24.1 °F 32% 29.86 in 10.0 mi North 5.8 mph - N/A   Mostly Cloudy
11:56 AM 55.0 °F - 21.9 °F 28% 29.84 in 10.0 mi NE 4.6 mph - N/A   Mostly Cloudy
12:56 PM 55.9 °F - 21.0 °F 26% 29.82 in 10.0 mi WSW 6.9 mph - N/A   Mostly Cloudy
1:56 PM 57.0 °F - 18.0 °F 22% 29.80 in 10.0 mi West 9.2 mph - N/A   Mostly Cloudy
2:56 PM 57.0 °F - 16.0 °F 20% 29.78 in 10.0 mi WSW 4.6 mph - N/A   Mostly Cloudy
3:56 PM 57.9 °F - 16.0 °F 19% 29.76 in 10.0 mi North 5.8 mph - N/A   Mostly Cloudy
4:56 PM 57.0 °F - 17.1 °F 21% 29.76 in 10.0 mi NNE 5.8 mph - N/A   Mostly Cloudy
5:56 PM 57.0 °F - 18.0 °F 22% 29.76 in 10.0 mi NE 6.9 mph - N/A   Mostly Cloudy
6:56 PM 55.0 °F - 21.0 °F 27% 29.78 in 10.0 mi North 10.4 mph - N/A   Mostly Cloudy
7:56 PM 52.0 °F - 21.9 °F 31% 29.80 in 10.0 mi NW 9.2 mph - N/A   Mostly Cloudy
8:56 PM 48.9 °F - 28.0 °F 44% 29.83 in 10.0 mi WNW 13.8 mph - N/A   Mostly Cloudy
9:56 PM 48.0 °F - 28.0 °F 46% 29.86 in 10.0 mi NW 9.2 mph - N/A   Mostly Cloudy
10:56 PM 46.0 °F 43.1 °F 28.9 °F 51% 29.86 in 10.0 mi NW 5.8 mph - N/A   Mostly Cloudy
11:56 PM 44.1 °F 41.5 °F 28.0 °F 53% 29.88 in 10.0 mi NW 4.6 mph - N/A   Mostly Cloudy